FW0333 Weather Reports


Display with metric or nautical units.
time (UTC)temp
F
wind
direction
speed
MPH
gust
MPH
rain 1hr
in
rain 24hr
in
rain mn
in
humidity
%
barometer
mb
20260505184436 54 341 0.0 0.0 0.00 0.02 0.02 88 1016.3
20260505182935 54 172 0.0 0.0 0.00 0.02 0.02 87 1016.3
20260505182435 54 16 0.0 0.0 0.00 0.02 0.02 87 1016.4
20260505181936 54 103 0.0 0.0 0.00 0.02 0.02 87 1016.3
20260505181435 54 46 0.0 0.0 0.00 0.02 0.02 87 1016.3
20260505180936 54 80 0.0 0.0 0.00 0.02 0.02 87 1016.3
20260505175936 54 65 0.0 0.0 0.00 0.02 0.02 87 1016.2
20260505175436 54 65 0.0 0.0 0.00 0.02 0.02 86 1016.2
20260505174935 54 226 0.0 0.0 0.00 0.02 0.02 86 1016.1
20260505174435 55 16 0.0 0.0 0.00 0.02 0.02 85 1016.0
20260505173935 55 24 0.0 0.0 0.00 0.02 0.02 85 1015.9
20260505173435 55 24 0.0 0.0 0.00 0.02 0.02 84 1015.8
20260505172937 55 88 0.0 0.0 0.00 0.02 0.02 84 1015.7
20260505172436 55 206 0.0 0.0 0.00 0.02 0.02 84 1015.8
20260505171937 54 262 0.0 0.0 0.00 0.02 0.02 86 1015.7
20260505171436 54 6 0.0 0.0 0.00 0.02 0.02 86 1015.7
20260505170937 54 49 0.0 0.0 0.00 0.02 0.02 86 1015.7
20260505170437 54 6 0.0 0.0 0.00 0.02 0.02 86 1015.6
20260505165937 54 146 0.0 0.0 0.00 0.02 0.02 87 1015.6
20260505165437 54 145 0.0 0.0 0.00 0.02 0.02 85 1015.6
20260505164937 54 345 0.0 1.0 0.00 0.02 0.02 86 1015.6
20260505164437 54 205 0.0 1.0 0.00 0.02 0.02 85 1015.6
20260505163437 54 260 0.0 0.0 0.00 0.02 0.02 85 1015.6
20260505162937 54 259 0.0 1.0 0.00 0.02 0.02 86 1015.5
20260505161937 53 17 0.0 0.0 0.00 0.02 0.02 89 1015.5
20260505160936 53 207 0.0 0.0 0.00 0.02 0.02 92 1015.4
20260505160437 52 206 0.0 0.0 0.00 0.02 0.02 94 1015.4
20260505152931 50 259 0.0 0.0 0.00 0.02 0.02 96 1015.3
20260505152431 50 259 0.0 0.0 0.00 0.02 0.02 96 1015.2
20260505151931 50 259 0.0 0.0 0.00 0.02 0.02 96 1015.2
20260505151429 49 259 0.0 0.0 0.00 0.02 0.02 96 1015.2
20260505150929 49 259 0.0 0.0 0.00 0.02 0.02 96 1015.2
20260505150430 49 259 0.0 0.0 0.00 0.02 0.02 96 1015.2
20260505124917 47 271 0.0 0.0 0.00 0.02 0.02 95 1014.7
20260505124418 47 271 0.0 0.0 0.01 0.02 0.02 95 1014.8
20260505123917 47 276 0.0 0.0 0.01 0.02 0.02 95 1014.6
20260505123417 47 276 0.0 0.0 0.01 0.02 0.02 95 1014.6
20260505122417 47 276 0.0 0.0 0.01 0.02 0.02 95 1014.6
20260505121917 47 276 0.0 0.0 0.01 0.02 0.02 95 1014.6
20260505121417 47 276 0.0 0.0 0.01 0.02 0.02 95 1014.7
20260505120917 47 276 0.0 0.0 0.01 0.02 0.02 95 1014.7
20260505120414 47 276 0.0 0.0 0.01 0.02 0.02 95 1014.7
20260505115915 47 276 0.0 0.0 0.01 0.02 0.02 95 1014.7
20260505114915 47 276 0.0 0.0 0.01 0.02 0.02 95 1014.8
20260505114415 47 276 0.0 0.0 0.00 0.01 0.01 95 1014.8
20260505113914 47 276 0.0 0.0 0.01 0.01 0.01 95 1014.7
20260505112912 47 276 0.0 0.0 0.01 0.01 0.01 95 1014.8
20260505112413 47 276 0.0 0.0 0.01 0.01 0.01 95 1014.8
20260505111411 47 276 0.0 0.0 0.01 0.01 0.01 95 1014.8
20260505110910 47 276 0.0 0.0 0.01 0.01 0.01 95 1014.8
20260505110409 47 276 0.0 0.0 0.01 0.01 0.01 94 1014.7
20260505101903 48 276 0.0 0.0 0.00 0.00 0.00 94 1014.8
20260505101401 48 276 0.0 0.0 0.00 0.00 0.00 94 1014.9
20260505100902 48 276 0.0 0.0 0.00 0.00 0.00 94 1015.0
20260505100359 48 276 0.0 0.0 0.00 0.00 0.00 94 1014.9
20260505095900 48 276 0.0 0.0 0.00 0.00 0.00 94 1015.0
20260505095359 48 276 0.0 0.0 0.00 0.00 0.00 94 1015.0
20260505094858 48 276 0.0 0.0 0.00 0.00 0.00 93 1015.0
20260505093354 48 276 0.0 0.0 0.00 0.00 0.00 93 1015.1
20260505092853 48 276 0.0 0.0 0.00 0.00 0.00 93 1015.0
20260505092353 48 276 0.0 0.0 0.00 0.00 0.00 93 1014.9
20260505091852 48 276 0.0 0.0 0.00 0.00 0.00 93 1015.0
20260505091353 48 276 0.0 0.0 0.00 0.00 0.00 93 1015.1
20260505090853 48 276 0.0 0.0 0.00 0.00 0.00 93 1015.3
20260505085853 48 276 0.0 0.0 0.00 0.00 0.00 93 1015.3
20260505085352 48 276 0.0 0.0 0.00 0.00 0.00 93 1015.4
20260505084852 48 276 0.0 0.0 0.00 0.00 0.00 93 1015.4
20260505084353 48 276 0.0 0.0 0.00 0.00 0.00 93 1015.4
20260505083852 48 276 0.0 0.0 0.00 0.00 0.00 93 1015.5
20260505083352 48 276 0.0 0.0 0.00 0.00 0.00 93 1015.6
20260505081853 47 276 0.0 0.0 0.00 0.00 0.00 93 1015.5
20260505081352 47 276 0.0 0.0 0.00 0.00 0.00 93 1015.6
20260505080349 47 276 0.0 0.0 0.00 0.00 0.00 93 1015.7
20260505075849 47 276 0.0 0.0 0.00 0.00 0.00 93 1015.7
20260505074849 47 276 0.0 0.0 0.00 0.00 0.00 93 1015.7
20260505074348 47 276 0.0 0.0 0.00 0.00 0.00 93 1015.7
20260505073849 47 276 0.0 0.0 0.00 0.00 0.00 93 1015.7
20260505072846 47 276 0.0 0.0 0.00 0.00 0.00 93 1015.7
20260505072346 47 276 0.0 0.0 0.00 0.00 0.00 92 1015.7
20260505071846 47 276 0.0 0.0 0.00 0.00 0.00 92 1015.7
20260505070846 47 276 0.0 0.0 0.00 0.00 0.00 92 1015.4
20260505070346 47 276 0.0 0.0 0.00 0.00 0.00 92 1015.4
20260505065344 47 276 0.0 0.0 0.00 0.00 0.00 92 1015.4
20260505064341 48 276 0.0 0.0 0.00 0.00 0.00 92 1015.3
20260505063842 48 276 0.0 0.0 0.00 0.00 0.00 92 1015.5
20260505063343 48 276 0.0 0.0 0.00 0.00 0.00 92 1015.4
20260505062843 48 276 0.0 0.0 0.00 0.00 0.00 91 1015.2
20260505062342 48 276 0.0 0.0 0.00 0.00 0.00 91 1015.1
20260505061842 48 276 0.0 0.0 0.00 0.00 0.00 91 1015.1
20260505060341 48 276 0.0 0.0 0.00 0.00 0.00 91 1015.1
20260505055842 48 276 0.0 0.0 0.00 0.00 0.00 91 1015.2
20260505055341 49 276 0.0 0.0 0.00 0.00 0.00 90 1015.4
20260505054841 49 276 0.0 0.0 0.00 0.00 0.00 90 1015.3
20260505054342 49 276 0.0 0.0 0.00 0.00 0.00 90 1015.3
20260505053841 49 276 0.0 0.0 0.00 0.00 0.00 90 1015.4
20260505052841 49 276 0.0 0.0 0.00 0.00 0.00 89 1015.7
20260505052342 49 276 0.0 0.0 0.00 0.00 0.00 89 1015.6
20260505051841 49 276 0.0 0.0 0.00 0.00 0.00 89 1015.7
20260505051342 49 276 0.0 0.0 0.00 0.00 0.00 89 1015.8
20260505050841 49 276 0.0 0.0 0.00 0.00 0.00 88 1015.6
20260505050342 50 276 0.0 0.0 0.00 0.00 0.00 88 1015.7
20260505041339 51 276 0.0 0.0 0.00 0.00 0.00 86 1015.3
20260505040839 51 276 0.0 0.0 0.00 0.00 0.00 85 1015.3
20260505035339 51 276 0.0 0.0 0.00 0.00 0.00 85 1015.1
20260505034837 51 276 0.0 0.0 0.00 0.00 0.00 84 1015.0
20260505034337 52 276 0.0 0.0 0.00 0.00 0.00 84 1014.8
20260505033839 52 276 0.0 0.0 0.00 0.00 0.00 84 1014.7
20260505033336 52 276 0.0 0.0 0.00 0.00 0.00 84 1014.5
20260505032835 52 276 0.0 0.0 0.00 0.00 0.00 84 1014.5
20260505032335 52 276 0.0 0.0 0.00 0.00 0.00 85 1014.5
20260505031835 52 276 0.0 0.0 0.00 0.00 0.00 84 1014.6
20260505031335 53 266 0.0 0.0 0.00 0.00 0.00 84 1014.6
20260505030835 53 266 0.0 0.0 0.00 0.00 0.00 83 1014.6
20260505030337 53 266 0.0 0.0 0.00 0.00 0.00 82 1014.7
20260505025839 53 266 0.0 0.0 0.00 0.00 0.00 81 1014.6
20260505025335 53 266 0.0 0.0 0.00 0.00 0.00 81 1014.5
20260505024835 54 266 0.0 0.0 0.00 0.00 0.00 81 1014.6
20260505024333 54 266 0.0 0.0 0.00 0.00 0.00 81 1014.5
20260505023833 54 266 0.0 0.0 0.00 0.00 0.00 81 1014.4
20260505022833 54 304 0.0 0.0 0.00 0.00 0.00 79 1014.5
20260505021833 55 50 0.0 0.0 0.00 0.00 0.00 80 1014.7
20260505021333 55 31 0.0 0.0 0.00 0.00 0.00 80 1014.5
20260505020833 55 229 0.0 1.0 0.00 0.00 0.00 78 1014.4
20260505020333 55 240 0.0 1.0 0.00 0.00 0.00 78 1014.4
20260505015833 56 203 0.0 0.0 0.00 0.00 0.00 78 1014.4
20260505014331 57 63 0.0 0.0 0.00 0.00 0.00 78 1014.4
20260505013332 57 60 0.0 0.0 0.00 0.00 0.00 77 1014.4
20260505012831 57 60 0.0 0.0 0.00 0.00 0.00 77 1014.5
20260505011831 58 323 0.0 0.0 0.00 0.00 0.00 77 1014.5
20260505011331 58 6 0.0 0.0 0.00 0.00 0.00 76 1014.5
20260505010830 58 333 0.0 0.0 0.00 0.00 0.00 76 1014.6
20260505005829 58 215 0.0 0.0 0.00 0.00 0.00 77 1014.6
20260505005329 58 227 0.0 1.0 0.00 0.00 0.00 77 1014.6
20260505004828 58 186 0.0 1.0 0.00 0.00 0.00 77 1014.7
20260505004329 58 98 0.0 0.0 0.00 0.00 0.00 77 1014.7
20260505003329 58 333 0.0 1.0 0.00 0.00 0.00 76 1014.7
20260505002829 58 82 0.0 0.0 0.00 0.00 0.00 77 1014.8
20260505002329 57 172 0.0 0.0 0.00 0.00 0.00 78 1015.0
20260505001829 57 153 0.0 0.0 0.00 0.00 0.00 78 1014.8
20260505001328 57 207 0.0 0.0 0.00 0.00 0.00 78 1015.0
20260505000829 57 179 0.0 0.0 0.00 0.00 0.00 78 1015.0
20260505000327 57 179 0.0 0.0 0.00 0.00 0.00 77 1014.8
20260504235827 57 105 0.0 1.0 0.00 0.00 0.00 78 1015.0
20260504235326 57 219 0.0 1.0 0.00 0.00 0.00 77 1014.8
20260504234827 57 167 0.0 1.0 0.00 0.00 0.00 77 1014.8
20260504234324 57 54 0.0 0.0 0.00 0.00 0.00 77 1014.9
20260504233825 57 66 0.0 0.0 0.00 0.00 0.00 77 1014.9
20260504233322 57 283 0.0 1.0 0.00 0.00 0.00 78 1014.8
20260504232824 57 154 0.0 1.0 0.00 0.00 0.00 78 1014.9
20260504232322 57 209 0.0 1.0 0.00 0.00 0.00 78 1014.9
20260504231820 57 87 0.0 0.0 0.00 0.00 0.00 78 1014.9
20260504231319 57 98 0.0 0.0 0.00 0.00 0.00 79 1014.9
20260504230818 56 85 0.0 0.0 0.00 0.00 0.00 80 1015.0
20260504230319 56 57 0.0 0.0 0.00 0.00 0.00 79 1015.0
20260504225318 57 221 0.0 0.0 0.00 0.00 0.00 80 1015.0
20260504224817 57 51 0.0 0.0 0.00 0.00 0.00 79 1015.0
20260504224316 57 6 0.0 0.0 0.00 0.00 0.00 79 1015.0
20260504223815 58 252 0.0 0.0 0.00 0.00 0.00 78 1015.0
20260504223315 58 304 0.0 0.0 0.00 0.00 0.00 77 1015.1
20260504222313 59 11 0.0 1.0 0.00 0.00 0.00 75 1014.8
20260504221813 59 84 0.0 1.0 0.00 0.00 0.00 73 1014.9
20260504221312 60 34 0.0 0.0 0.00 0.00 0.00 74 1015.0
20260504220813 60 356 0.0 0.0 0.00 0.00 0.00 74 1014.8
20260504220313 59 39 0.0 0.0 0.00 0.00 0.00 74 1015.0
20260504215812 59 217 0.0 0.0 0.00 0.00 0.00 75 1015.2
20260504215313 58 281 0.0 0.0 0.00 0.00 0.00 75 1015.4
20260504214812 59 37 0.0 0.0 0.00 0.00 0.00 77 1015.3
20260504214313 58 58 0.0 7.0 0.00 0.00 0.00 76 1015.2
20260504213812 58 71 0.0 7.0 0.00 0.00 0.00 78 1015.4
20260504212813 57 87 0.0 0.0 0.00 0.00 0.00 80 1015.4
20260504212312 56 321 0.0 0.0 0.00 0.00 0.00 79 1015.4
20260504211812 56 288 0.0 0.0 0.00 0.00 0.00 80 1015.4
20260504211313 56 65 0.0 0.0 0.00 0.00 0.00 80 1015.5
20260504210812 56 15 0.0 0.0 0.00 0.00 0.00 81 1015.6
20260504210312 56 90 0.0 0.0 0.00 0.00 0.00 80 1015.6
20260504205813 56 62 0.0 0.0 0.00 0.00 0.00 79 1015.6
20260504205312 56 130 0.0 0.0 0.00 0.00 0.00 79 1015.6
20260504204813 56 211 0.0 0.0 0.00 0.00 0.00 79 1015.6
20260504204312 56 322 0.0 0.0 0.00 0.00 0.00 79 1015.6
20260504203812 56 198 0.0 1.0 0.00 0.00 0.00 79 1015.6
20260504203313 56 197 0.0 1.0 0.00 0.00 0.00 79 1015.6
20260504202812 56 285 0.0 0.0 0.00 0.00 0.00 82 1015.5
20260504202310 56 47 0.0 0.0 0.00 0.00 0.00 81 1015.5
20260504201811 56 44 0.0 2.0 0.00 0.00 0.00 81 1015.6
20260504200810 56 207 0.0 1.0 0.00 0.00 0.00 80 1015.6
20260504200311 56 4 0.0 0.0 0.00 0.00 0.00 80 1015.4
20260504195810 56 68 0.0 0.0 0.00 0.00 0.00 81 1015.6
20260504194810 56 290 0.0 0.0 0.00 0.00 0.00 81 1015.6
20260504194310 56 47 0.0 0.0 0.00 0.00 0.00 79 1015.6
20260504193810 56 61 0.0 0.0 0.00 0.00 0.00 80 1015.6
20260504193311 56 67 0.0 0.0 0.00 0.00 0.00 80 1015.6
20260504192808 56 34 0.0 0.0 0.00 0.00 0.00 80 1015.5
20260504192308 56 33 0.0 0.0 0.00 0.00 0.00 81 1015.5
20260504191808 55 205 0.0 0.0 0.00 0.00 0.00 81 1015.7
20260504190809 55 204 0.0 0.0 0.00 0.00 0.00 81 1015.6
20260504190308 55 293 0.0 0.0 0.00 0.00 0.00 81 1015.7
20260504185308 56 73 0.0 0.0 0.00 0.00 0.00 80 1015.6
20260504184809 56 49 0.0 0.0 0.00 0.00 0.00 79 1015.7